Regional Weather Roundup
Issued by NWS Northern Indiana

Home | Current Version | Previous Version | Graphics & Text | Print | Product List | Glossary On
Versions: 1 2 3 4 5 6 7 8 9 10 11 12 13 14 15 16 17 18 19 20 21 22 23 24 25 26 27 28 29 30 31 32 33 34 35 36 37 38 39 40 41 42 43 44 45 46 47 48 49 50
247
ASUS43 KIWX 240700
RWRIWX

KIWX WEATHER ROUNDUP
NATIONAL WEATHER SERVICE NORTHERN INDIANA
300 AM EDT THU MAY 24 2018

NOTE: "FAIR" INDICATES FEW OR NO CLOUDS BELOW 12,000 FEET WITH NO
SIGNIFICANT WEATHER AND/OR OBSTRUCTIONS TO VISIBILITY.

* THESE STATIONS ARE NOT UNDER NWS QUALITY CONTROL. THEY ALSO MAY NOT
  REPORT WEATHER SUCH AS PRECIPITATION OR FOG.

INZ001>027-240800-
NORTHERN INDIANA

CITY           SKY/WX    TMP DP  RH WIND       PRES   REMARKS
SOUTH BEND     FAIR      56  53  90 CALM      30.20F
GOSHEN         FAIR      55  53  93 E3        30.19F
FORT WAYNE     FAIR      60  53  77 CALM      30.20F

$$
INZ028>050-240800-
CENTRAL INDIANA

CITY           SKY/WX    TMP DP  RH WIND       PRES   REMARKS
LAFAYETTE      FAIR      57  54  89 NE3       30.16F
KOKOMO*        FAIR      62  53  72 E7        30.19F
MUNCIE*        FAIR      60  52  74 SE3       30.19F
INDIANAPOLIS   FAIR      65  53  65 E7        30.17S

$$
MIZ043>046-050>051-056>058-064>065-071>073-077>080-240800-
SOUTHWEST LOWER MICHIGAN

CITY           SKY/WX    TMP DP  RH WIND       PRES   REMARKS
BATTLE CREEK   FAIR      56  53  90 CALM      30.21F
BENTON HARBOR  FAIR      52  50  93 CALM      30.18F
COLDWATER*     FAIR      55  55 100 CALM      30.21S FOG
HILLSDALE*     FAIR      54  50  87 CALM      30.21S
HOLLAND        FAIR      54  52  93 CALM      30.19F
GRAND RAPIDS   FAIR      56  53  90 E5        30.19F
KALAMAZOO      FAIR      56  53  90 CALM      30.20F FOG
THREE RIVERS*  FAIR      55  55  98 CALM      30.21F

$$
OHZ001>008-015>018-024>025-240800-
NORTHWEST OHIO

CITY           SKY/WX    TMP DP  RH WIND       PRES   REMARKS
DEFIANCE       FAIR      55  52  89 CALM      30.20S
FINDLAY        FAIR      56  51  84 CALM      30.19F
TOLEDO EXPRESS FAIR      56  55  97 CALM      30.20S
TOLEDO METCALF FAIR      59  51  75 CALM      30.20F
LIMA           FAIR      57  52  83 CALM      30.20F

$$
AND FOR LAKE MICHIGAN COASTAL AND OPEN LAKE BUOY OBSERVATIONS

STATION/POSITION TEMP    WIND        PRES    VSBY  WAVE
                 AIR SEA DIR/SP/G                  HT/PER
                 (F)     (DEG/KT/KT) (MB)    (MI)  (FT/S)
CALUMET HARBOR    57      CALM  /  1 1021.2F
MICHIGAN CITY     60     120/  1/  2   N/A
BURNS HARBOR      58        CALM     1022.4F
SAINT JOSEPH      60     100/  2/  3 1022.7
SOUTH LAKE BUOY   49 39  130/  6/  6 1022.9          0
4 MI NW BRIDGMAN  61 55   90/  2/  4 1022.2F         0
MICHIGAN CITY     57 56  100/  2/  2   N/A           0

$$
&&




USA.gov is the U.S. government's official web portal to all federal, state and local government web resources and services.